User: anonymous   Login
Location: Lake Superior Provincial Park
(47.3335°N, 84.6162°W)
Time: 16:33:32
(UTC-04:00)
Language:

Cosmos 2333 Rocket - Orbit

View from above orbital plane
View from above orbital plane
View from above satellite
View from above satellite

Ground track
Ground track

The orbit data is extracted from the following two-line orbital elements,

1 24298U 96051B   18145.20454700 -.00000213  00000-0 -88711-4 0  9994
2 24298  70.8378  61.2125 0014289  26.0720 334.1117 14.12437441120114
Epoch (UTC): 25 May 2018 04:54:32
Eccentricity: 0.0014289
inclination: 70.8378°
perigee height: 841 km
apogee height: 861 km
right ascension of ascending node: 61.2125°
argument of perigee: 26.0720°
revolutions per day: 14.12437441
mean anomaly at epoch: 334.1117°
orbit number at epoch: 12011

The dashed part of the orbit path shows where the satellite is in the earth's shadow,  

DLR